Showing default

BRO-17, 66672

Orbit data source: Space-Track

BRO-17, 66672 is a payload satellite owned by Unseen Labs (FR) in SSO that was launched on Fri, 28 Nov 2025 UTC via an FALCON 9 launch vehicle from the Air Force Western Test Range (AFWTR). Payload-class satellites include a variety of spacecraft equipped with specific instruments for various scientific and technological missions. These include communications satellites like Starlink; space stations such as the ISS; scientific satellites like the Hubble; Earth observation satellites from companies like Planet Labs, Umbra, and HawkEye 360; GPS; miniature CubeSats for education and research; and military/defense satellites.

Loading next visibility...
Identifier
66672, 2025-276G
Orbit
SSO
Country
Flag of FRFR
Related business
Manufacturer
GOMSpace
Mission
Operational Commercial Sigint
Bus & Motor
CUBESAT 8U, Unknown motor
Mass
15 kg wet, ~15 kg dry
Launch date (UTC)
2025-11-28 (4 months ago)
Launch vehicle
FALCON 9
Launch site
Air Force Western Test Range (AFWTR)
Object type
Payload
Rocket body
Debris
Shape & HBR
Box, 0.2 m
Radar Cross Section
0.100 m²

Expand to show TLE details & history
Last TLE update: 21 hours ago

TLE from 21 hours ago
0 BRO-17
1 66672U 25276G   26094.20955758  .00008780  00000-0  44121-3 0  9999
2 66672  97.4225 168.7809 0005299 253.3788 106.6864 15.17484139 19170
Epoch: 2026-04-04T05:01Z
TLE epoch observation values (Epoch: 2026-04-04T05:01:45.774Z)
Latitude
-0.00006°
Longitude
-99.19243°
Altitude
517.584 km
Speed
7.604 km/s
True Right ascension
11h 15m 07s
True Declination
0° 00' 00"
Sunlit
Object was in full shadow at epoch
Visualization orbit readout
Latitude
Unknown
Longitude
Unknown
Altitude
Unknown
Speed
Unknown
Apparent Right ascension
Unknown
Apparent Declination
Unknown
Sunlit
N/A
Visualization observer readout
Local Sidereal Time
07:41:54
Azimuth
Unknown
Elevation
Unknown
Doppler factor
Unknown
Orbital elements
Apogee altitude
514.067 km
Perigee altitude
506.767 km
Semi-major axis
6,888.554 km
Eccentricity
0.00053
Inclination
97.4225°
RAAN
168.7809°
Arg. of periapsis
253.3788°
True anomaly
106.74455°
Mean anomaly
106.6864°
Eccentric anomaly
106.71548°
Mean motion
3.79622 °/min
Orbital period
94.83 mins
BSTAR
0.00044121
Loading maneuver chart data...
Computing Atmospheric mass density...
Loading historical data...
Loading historical data...
Loading historical data...
Loading historical data...
Loading historical data...
Loading historical data...
Loading historical data...

Documentation

Showing up to 5 results
|